Location: Blairvadach
(56.2780°N, 6.9720°W)
Time: 20:56:32
(UTC+01:00)

OTV 5 (USA 277) - Pass Details

Date: 29 April 2019
Orbit: 310 x 325 km, 54.5° (Epoch: 08 May)

Event Time Altitude Azimuth Distance (km) Brightness Sun altitude
Rises 23:21:18 0° 270° (W) 2,039 ? -14.5°
Reaches altitude 10° 23:23:17 10° 266° (W) 1,209 ? -14.7°
Maximum altitude 23:25:55 55° 187° (S) 382 ? -14.9°
Enters shadow 23:26:16 49° 151° (SSE) 411 ? -14.9°
